Blacksburg, VA

3:26 PM EDT on July 28, 2017 (GMT -0400)
Virginia Tech

Weather History for KBCB - February, 2014

Change the Weather History Date:

Monday, February 3, 2014

  Actual Average Record
Temperature  
Mean Temperature 37 °F 32 °F  
Max Temperature 47 °F 43 °F 70 °F (1989)
Min Temperature 27 °F 22 °F 4 °F (1971)
Degree Days  
Heating Degree Days 28 33  
Month to date heating degree days 75 99  
Since 1 July heating degree days 3379 3286  
Cooling Degree Days 0 0  
Month to date cooling degree days 0 0  
Year to date cooling degree days 0 0  
Moisture  
Dew Point 39 °F    
Average Humidity 91    
Maximum Humidity 100    
Minimum Humidity 82    
Precipitation  
Precipitation 1.26 in 0.10 in 1.80 in (1982)
Month to date precipitation 1.26 0.30  
Year to date precipitation 2.91 3.38  
Snow  
Snow 0.00 in - - ()
Month to date snowfall 0.0  
Since 1 July snowfall 6.6  
Snow Depth 0.00 in    
Sea Level Pressure  
Sea Level Pressure 30.05 in    
Wind  
Wind Speed 5 mph (West)    
Max Wind Speed 10 mph    
Max Gust Speed 17 mph    
Visibility 7 miles    
Events Rain    
T = Trace of Precipitation, MM = Missing Value Source: NWS Daily Summary

Daily Weather History Graph

Daily Weather History Graph

Search for Another Location

Airport or City:

Trip Planner

Search our weather history database for the weather conditions in past years. The results will help you decide how hot, cold, wet, or windy it might be!

Date:

Astronomy

Feb. 03, 2014 Rise Set
Actual Time 7:22 AM EST 5:48 PM EST
Civil Twilight 6:55 AM EST 6:15 PM EST
Nautical Twilight 6:24 AM EST 6:46 PM EST
Astronomical Twilight 5:53 AM EST 7:17 PM EST
Moon 9:31 AM EST (2/3) 10:29 PM EST (2/3)
Length of Visible Light 11h 20m
Length of Day
10h 25m
Waxing Crescent, 19% of the Moon is Illuminated
Feb 3
Waxing Crescent
Feb 6
First Quarter
Feb 14
Full
Feb 22
Last Quarter
Mar 1
New

Hourly Weather History & Observations

Time (EST) Temp. Windchill Dew Point Humidity Pressure Visibility Wind Dir Wind Speed Gust Speed Precip Events Conditions
12:15 AM 46.4 °F - 46.4 °F 100% 29.98 in 5.0 mi Calm Calm - N/A   Overcast
12:35 AM 46.4 °F - 46.4 °F 100% 29.97 in 2.5 mi Calm Calm - N/A Rain Rain
12:55 AM 46.4 °F - 46.4 °F 100% 29.97 in 2.0 mi Calm Calm - 0.01 in   Heavy Drizzle
1:15 AM 46.4 °F - 46.4 °F 100% 29.96 in 1.2 mi Calm Calm - 0.08 in Rain Heavy Rain
1:35 AM 46.4 °F - 46.4 °F 100% 29.95 in 1.5 mi Calm Calm - 0.10 in Rain Light Rain
1:55 AM 46.4 °F - 46.4 °F 100% 29.94 in 1.2 mi Calm Calm - 0.15 in Rain Rain
2:15 AM 48.2 °F - 48.2 °F 100% 29.93 in 2.5 mi East 5.8 mph - 0.07 in Rain Heavy Rain
2:35 AM 48.2 °F - 48.2 °F 100% 29.92 in 3.0 mi ESE 5.8 mph - 0.09 in Rain Light Rain
2:55 AM 48.2 °F - 48.2 °F 100% 29.91 in 3.0 mi ESE 5.8 mph - 0.17 in Rain Heavy Rain
3:15 AM 48.2 °F - 48.2 °F 100% 29.90 in 5.0 mi ESE 4.6 mph - 0.08 in Rain Rain
3:35 AM 48.2 °F - 48.2 °F 100% 29.90 in 5.0 mi ESE 4.6 mph - 0.15 in Rain Rain
3:55 AM 48.2 °F - 48.2 °F 100% 29.88 in 2.0 mi ESE 5.8 mph - 0.20 in Rain Rain
4:15 AM 48.2 °F - 48.2 °F 100% 29.88 in 3.0 mi East 6.9 mph - 0.08 in Rain Rain
4:35 AM 46.4 °F 42.9 °F 46.4 °F 100% 29.88 in 1.0 mi ESE 6.9 mph - 0.11 in Rain Rain
4:55 AM 46.4 °F 42.9 °F 46.4 °F 100% 29.87 in 1.2 mi ESE 6.9 mph - 0.17 in Rain Rain
5:15 AM 46.4 °F 41.9 °F 46.4 °F 100% 29.86 in 0.8 mi ESE 9.2 mph - 0.04 in Rain Light Rain
5:35 AM 46.4 °F 42.9 °F 46.4 °F 100% 29.85 in 0.8 mi ESE 6.9 mph - 0.08 in Rain Light Rain
5:55 AM 46.4 °F 44.3 °F 46.4 °F 100% 29.85 in 0.8 mi ESE 4.6 mph - 0.11 in Rain Rain
6:15 AM 46.4 °F 45.2 °F 46.4 °F 100% 29.87 in 1.2 mi SE 3.5 mph - 0.03 in Rain Rain
6:35 AM 46.4 °F - 46.4 °F 100% 29.88 in 0.8 mi Calm Calm - 0.08 in Rain Rain
6:55 AM 46.4 °F 43.5 °F 46.4 °F 100% 29.90 in 1.2 mi North 5.8 mph - 0.11 in Rain Rain
7:15 AM 46.4 °F 42.4 °F 46.4 °F 100% 29.93 in 7.0 mi North 8.1 mph - 0.04 in Rain Rain
7:35 AM 46.4 °F 42.4 °F 46.4 °F 100% 29.92 in 10.0 mi East 8.1 mph - 0.08 in Rain Rain
7:55 AM 46.4 °F 44.3 °F 46.4 °F 100% 29.94 in 7.0 mi ENE 4.6 mph - 0.11 in Rain Rain
8:15 AM 44.6 °F 40.2 °F 44.6 °F 100% 29.93 in 10.0 mi ESE 8.1 mph - 0.04 in Rain Rain
8:35 AM 44.6 °F 39.7 °F 44.6 °F 100% 29.91 in 10.0 mi ESE 9.2 mph - 0.07 in Rain Rain
8:55 AM 42.8 °F 37.0 °F 42.8 °F 100% 29.93 in 10.0 mi East 10.4 mph 17.3 mph 0.08 in Rain Light Rain
9:15 AM 42.8 °F 35.8 °F 42.8 °F 100% 29.90 in 10.0 mi East 13.8 mph - 0.02 in Rain Light Rain
9:35 AM 42.8 °F 37.5 °F 42.8 °F 100% 29.96 in 10.0 mi NW 9.2 mph - 0.03 in   Light Drizzle
9:55 AM 42.8 °F 38.0 °F 42.8 °F 100% 29.98 in 1.5 mi NW 8.1 mph - 0.05 in Rain Rain
10:15 AM 42.8 °F 37.5 °F 42.8 °F 100% 30.01 in 3.0 mi WNW 9.2 mph - 0.01 in   Drizzle
10:35 AM 39.2 °F 31.6 °F 39.2 °F 100% 30.03 in 3.0 mi WNW 12.7 mph 18.4 mph 0.01 in   Drizzle
10:55 AM 37.4 °F 31.4 °F 37.4 °F 100% 30.05 in 7.0 mi West 8.1 mph 16.1 mph 0.02 in   Drizzle
11:15 AM 37.4 °F 30.8 °F 37.4 °F 100% 30.06 in 3.0 mi WNW 9.2 mph - N/A Rain Rain
11:35 AM 35.6 °F 29.9 °F 35.6 °F 100% 30.06 in 7.0 mi WNW 6.9 mph - 0.01 in   Drizzle
11:55 AM 37.4 °F 31.4 °F 37.4 °F 100% 30.07 in 10.0 mi West 8.1 mph - 0.01 in   Overcast
12:15 PM 37.4 °F 30.8 °F 37.4 °F 100% 30.06 in 10.0 mi West 9.2 mph - N/A   Overcast
12:35 PM 39.2 °F 34.2 °F 39.2 °F 100% 30.06 in 10.0 mi West 6.9 mph - N/A   Mostly Cloudy
12:55 PM 39.2 °F 33.6 °F 37.4 °F 93% 30.06 in 10.0 mi West 8.1 mph - N/A   Mostly Cloudy
1:15 PM 39.2 °F 33.6 °F 37.4 °F 93% 30.06 in 10.0 mi West 8.1 mph - N/A   Overcast
1:35 PM 41.0 °F 38.0 °F 39.2 °F 93% 30.06 in 10.0 mi West 4.6 mph - N/A   Mostly Cloudy
1:55 PM 39.2 °F 32.5 °F 37.4 °F 93% 30.06 in 10.0 mi WNW 10.4 mph - N/A   Mostly Cloudy
2:15 PM 42.8 °F 38.6 °F 39.2 °F 87% 30.07 in 10.0 mi West 6.9 mph - N/A   Mostly Cloudy
2:35 PM 42.8 °F 38.6 °F 37.4 °F 81% 30.07 in 10.0 mi WNW 6.9 mph - N/A   Overcast
2:55 PM 42.8 °F 38.6 °F 37.4 °F 81% 30.07 in 10.0 mi West 6.9 mph - N/A   Overcast
3:15 PM 42.8 °F 38.6 °F 37.4 °F 81% 30.08 in 10.0 mi West 6.9 mph - N/A   Overcast
3:35 PM 42.8 °F 38.0 °F 37.4 °F 81% 30.08 in 10.0 mi West 8.1 mph - N/A   Overcast
3:55 PM 42.8 °F 38.6 °F 37.4 °F 81% 30.10 in 10.0 mi West 6.9 mph - N/A   Overcast
4:15 PM 42.8 °F 38.6 °F 37.4 °F 81% 30.11 in 10.0 mi West 6.9 mph - N/A   Scattered Clouds
4:35 PM 39.2 °F 34.2 °F 35.6 °F 87% 30.12 in 10.0 mi West 6.9 mph - N/A   Clear
4:55 PM 39.2 °F 33.6 °F 35.6 °F 87% 30.12 in 10.0 mi West 8.1 mph - N/A   Clear
5:15 PM 37.4 °F 33.8 °F 35.6 °F 93% 30.14 in 10.0 mi WNW 4.6 mph - N/A   Clear
5:35 PM 37.4 °F 34.9 °F 33.8 °F 87% 30.17 in 10.0 mi WSW 3.5 mph - N/A   Clear
5:55 PM 35.6 °F 32.8 °F 33.8 °F 93% 30.18 in 10.0 mi West 3.5 mph - N/A   Scattered Clouds
6:15 PM 35.6 °F 32.8 °F 33.8 °F 93% 30.19 in 10.0 mi SW 3.5 mph - N/A   Clear
6:35 PM 33.8 °F 30.8 °F 32.0 °F 93% 30.19 in 10.0 mi WSW 3.5 mph - N/A   Clear
6:55 PM 33.8 °F - 33.8 °F 100% 30.20 in 10.0 mi Calm Calm - N/A   Clear
7:15 PM 33.8 °F - 33.8 °F 100% 30.19 in 10.0 mi Calm Calm - N/A   Clear
7:35 PM 30.2 °F - 30.2 °F 100% 30.19 in 10.0 mi Calm Calm - N/A   Clear
7:55 PM 32.0 °F - 32.0 °F 100% 30.20 in 10.0 mi Calm Calm - N/A   Clear
8:15 PM 30.2 °F 26.7 °F 30.2 °F 100% 30.20 in 10.0 mi WNW 3.5 mph - N/A   Clear
8:35 PM 30.2 °F 26.7 °F 30.2 °F 100% 30.21 in 10.0 mi West 3.5 mph - N/A   Clear
8:55 PM 30.2 °F 26.7 °F 30.2 °F 100% 30.22 in 10.0 mi WNW 3.5 mph - N/A   Clear
9:15 PM 30.2 °F - 30.2 °F 100% 30.23 in 10.0 mi Calm Calm - N/A   Clear
9:35 PM 30.2 °F - 30.2 °F 100% 30.24 in 7.0 mi Calm Calm - N/A   Clear
9:55 PM 28.4 °F - 28.4 °F 100% 30.25 in 7.0 mi Calm Calm - N/A   Clear
10:15 PM 28.4 °F - 28.4 °F 100% 30.25 in 7.0 mi Calm Calm - N/A   Clear
10:35 PM 28.4 °F - 28.4 °F 100% 30.25 in 5.0 mi Calm Calm - N/A   Clear
10:55 PM 28.4 °F - 28.4 °F 100% 30.25 in 5.0 mi Calm Calm - N/A   Clear
11:15 PM 28.4 °F - 28.4 °F 100% 30.25 in 5.0 mi Calm Calm - N/A   Scattered Clouds
11:35 PM 28.4 °F - 28.4 °F 100% 30.24 in 4.0 mi Calm Calm - N/A   Overcast
11:55 PM 30.2 °F - 30.2 °F 100% 30.24 in 5.0 mi Calm Calm - N/A   Overcast